Location: Lincolnton
(35.4660°N, 81.2500°W)
Time: 00:07:19
(UTC-05:00)

Hubble Space Telescope - Visible Passes

Search period start: 23 February 2017 00:00
Search period end: 05 March 2017 00:00
Orbit: 538 x 542 km, 28.5° (Epoch: 21 February)

Date Brightness Start Highest point End Pass type
(mag) Time Alt. Az. Time Alt. Az. Time Alt. Az.
23 Feb 2.9 19:38:26 10° S 19:40:31 14° SSE 19:40:36 14° SSE visible
24 Feb 2.7 19:27:50 10° SSW 19:30:26 16° SSE 19:31:23 15° SE visible
25 Feb 2.6 19:17:25 10° SSW 19:20:22 19° SSE 19:22:09 15° SE visible
25 Feb 3.8 20:57:29 10° WSW 20:57:32 10° WSW 20:57:32 10° WSW visible
26 Feb 2.4 19:07:07 10° SW 19:10:19 22° SSE 19:12:52 13° ESE visible
26 Feb 3.5 20:47:26 10° WSW 20:48:15 15° SW 20:48:15 15° SW visible
27 Feb 2.3 18:56:53 10° SW 19:00:15 24° S 19:03:33 10° ESE visible
27 Feb 3.0 20:37:25 10° WSW 20:38:56 19° SW 20:38:56 19° SW visible
28 Feb 2.2 18:46:43 10° SW 18:50:13 27° S 18:53:43 10° ESE visible
28 Feb 2.7 20:27:25 10° WSW 20:29:36 24° SW 20:29:36 24° SW visible
01 Mar 2.4 20:17:26 10° WSW 20:20:16 26° SSW 20:20:16 26° SSW visible
02 Mar 2.3 20:07:29 10° WSW 20:10:57 26° S 20:10:57 26° S visible
03 Mar 2.4 19:57:34 10° WSW 20:00:54 24° SSW 20:01:39 22° S visible
04 Mar 2.6 19:47:43 10° WSW 19:50:50 21° SSW 19:52:22 17° SSE visible
